Overview Statistics Trail Chart Weather Telemetry Raw packets
 

This is the latest recevied weather packets stored in our database for station/object HP1MRA-15. If no packets are shown the sender has not sent any weather packets the latest 10 day(s).

<< 18 19 20 21 22 23 24 >>
Time Temp. Humidity Pressure Rain* Wind** Luminosity Snow
1788541343 36.67° C 64% 1002.5 hPa 0 mm - - -
1788541015 37.22° C 65% 1002.6 hPa 0 mm - - -
1788540714 38.89° C 63% 1002.7 hPa 0 mm - - -
1788540415 38.33° C 69% 1002.9 hPa 0 mm - - -
1788540115 37.78° C 68% 1002.9 hPa 0 mm - - -
1788539816 37.78° C 67% 1003 hPa 0 mm - - -
1788539814 37.78° C 67% 1003 hPa 0 mm - - -
1788539515 38.89° C 64% 1003.1 hPa 0 mm - - -
1788539216 38.89° C 70% 1003.2 hPa 0 mm - - -
1788538914 38.89° C 70% 1003.4 hPa 0 mm - - -
1788538615 38.33° C 70% 1003.5 hPa 0 mm - - -
1788538315 37.78° C 70% 1003.5 hPa 0 mm - - -
1788538015 37.22° C 69% 1003.6 hPa 0 mm - - -
1788538014 37.22° C 70% 1003.6 hPa 0 mm - - -
1788537711 36.11° C 71% 1003.7 hPa 0 mm - - -
1788537412 35.56° C 70% 1003.7 hPa 0 mm - - -
1788537113 35.56° C 71% 1003.8 hPa 0 mm - - -
1788537112 35.56° C 71% 1003.8 hPa 0 mm - - -
1788536811 35.56° C 72% 1003.9 hPa 0 mm - - -
1788536510 35° C 71% 1004 hPa 0 mm - - -
1788536034 35° C 67% 1003.9 hPa 0 mm - - -
1788535733 35.56° C 71% 1003.8 hPa 0 mm - - -
1788535434 35° C 70% 1003.8 hPa 0.25 mm - - -
1788535135 35° C 72% 1003.9 hPa 0.25 mm - - -
1788534833 35° C 72% 1003.8 hPa 0.25 mm - - -

* Rain latest hour (hover to see other rain measurements)
** Current wind speed in m/s (hover to see current wind gust speed)